Location: Newark
(47.5833°N, 8.1500°E)
Time: 10:42:32
(UTC+00:00)

Vanguard 2 Rocket - Pass Details

Date: 27 October 2020
Orbit: 553 x 3326 km, 32.9° (Epoch: 04 December)

Event Time Altitude Azimuth Distance (km) Brightness Sun altitude
Rises 19:28:18 0° 234° (SW) 2,837 9.9 -32.5°
Enters shadow 19:30:22 - 219° (SW) 2,240 9.1 -32.9°
Reaches altitude 10° 19:31:00 10° 212° (SSW) 2,103 - -33.0°
Maximum altitude 19:34:08 17° 171° (S) 1,909 - -33.5°
Drops below altitude 10° 19:38:06 10° 131° (SE) 2,781 - -34.1°
Sets 19:42:28 0° 114° (ESE) 4,247 - -34.8°
